Location: Waning Moon II Observatory
(30.3730°N, 89.7620°W)
Time: 15:58:20
(UTC-05:00)

Cosmos 1825 Rocket - Visible Passes

Search period start: 27 August 2014 00:00
Search period end: 06 September 2014 00:00
Orbit: 605 x 634 km, 82.5° (Epoch: 26 August)

Date Brightness Start Highest point End Pass type
(mag) Time Alt. Az. Time Alt. Az. Time Alt. Az.
27 Aug 6.5 20:15:20 10° NW 20:18:23 19° W 20:21:27 10° SW visible
31 Aug 6.6 19:47:28 10° NW 19:50:23 18° W 19:53:18 10° SW visible
04 Sep 7.2 05:51:41 10° ESE 05:53:02 11° E 05:54:23 10° ENE visible
05 Sep 6.4 06:06:50 10° SE 06:10:16 23° E 06:13:42 10° NE visible
